HISPASAT 30W-5

Last updated on Sun Apr 12 2026 00:02:52 GMT+0000 (Coordinated Universal Time)

1 37264U 10070A 26101.37216975 -.00000215 00000+0 00000+0 0 9997 2 37264 0.0537 98.8610 0004462 311.0663 253.6536 1.00270586 52519
UTC large
Height (km)
Speed (km/s)
/
Latitude / Longitude
Inclination (degrees)
Orbital Period (minutes)
Azimuth
Elevation
Range (km)
Doppler Factor

Next 0 passes for location: London (51.5072 / 0.1276)

Sorry there are no passes over London.
HISPASAT 30W-5